Location: Courçay
(47.2523°N, 0.8761°E)
Time: 02:40:23
(UTC+00:00)

Cosmos 2082 Rocket - Pass Details

Date: 18 November 2025
Orbit: 834 x 851 km, 71.0° (Epoch: 04 December)

Event Time Altitude Azimuth Distance (km) Brightness Sun altitude
Rises 19:15:21 0° 322° (NW) 3,390 5.9 -29.9°
Reaches altitude 10° 19:18:18 10° 307° (NW) 2,451 5.2 -30.4°
Maximum altitude 19:22:28 22° 259° (W) 1,753 4.5 -31.1°
Drops below altitude 10° 19:26:39 10° 210° (SSW) 2,441 4.8 -31.8°
Sets 19:29:35 0° 196° (SSW) 3,372 5.4 -32.3°
